Regional Weather Roundup
Issued by NWS Wakefield, VA

Home | Current Version | Previous Version | Graphics & Text | Print | Product List | Glossary On
Versions: 1 2 3 4 5 6 7 8 9 10 11 12 13 14 15 16 17 18 19 20 21 22 23 24 25 26 27 28 29 30 31 32 33 34 35 36 37 38 39 40 41 42 43 44 45 46 47 48 49 50
000
ASUS41 KAKQ 270315
RWRAKQ

REGIONAL WEATHER ROUNDUP
NATIONAL WEATHER SERVICE WAKEFIELD VA
1100 PM EDT MON JUN 26 2017

Note: "fair" indicates few or no clouds below 12,000 feet with no
significant weather and/or obstructions to visibility. * = Denotes
station may not report precipitation (e.g., rain,snow,etc.),
thunder or fog.

VAZ042-051-052>054-056-270400-
NORTHERN VIRGINIA

CITY           SKY/WX    TMP DP  RH WIND       PRES   REMARKS
WASH NATIONAL  MOCLDY    75  61  61 S13       29.99S
DULLES         CLOUDY    72  53  51 SW6       30.00R
FORT BELVOIR   PTCLDY    72  60  66 CALM      29.99S
QUANTICO       PTCLDY    72  61  68 W3        30.00R
FREDERICKSBRG* CLEAR     67  57  69 CALM      29.99S
STAFFORD*      CLEAR     59  58  97 CALM      30.04S
WARRENTON      PTCLDY    60  54  80 CALM      30.00S
CULPEPER*      CLEAR     63  58  82 CALM      30.01S
MANASSAS*      MOCLDY    67  58  72 CALM      30.00S
LEESBURG*      CLOUDY    73  55  53 N7        30.01S
WINCHESTER     PTCLDY    64  46  52 W3        30.02S
FRONT ROYAL*   PTCLDY    66  50  55 CALM      30.03R
LURAY*         CLEAR     70  48  46 CALM      30.04R
$$

VAZ048-049-060>072-079>083-270400-
CENTRAL AND SOUTH CENTRAL VIRGINIA

CITY           SKY/WX    TMP DP  RH WIND       PRES   REMARKS
RICHMOND       PTCLDY    69  56  62 SW5       30.01S
CHESTERFIELD*  FAIR      66  58  75 CALM      30.02S
PETERSBURG*    CLEAR     59  58  97 CALM      30.03S
HANOVER        CLEAR     63  55  75 CALM      30.02S
TAPPAHANNOCK*  CLEAR     64  64 100 CALM      30.02S
QUINTON*       FAIR      64  64  99 CALM      30.01S
CHARLOTTSVILLE CLEAR     67  55  65 CALM      30.02R
GORDONSVILLE*  CLEAR     62  57  84 CALM      30.01S
ORANGE*        CLEAR     61  54  77 CALM      30.01S
LOUISA*        CLEAR     63  57  82 CALM      30.01R
BUMPASS*       FAIR      62  57  84 SW3       30.01S
FARMVILLE*     CLEAR     63  55  74 CALM      30.02S
CREWE*         FAIR      62  58  87 CALM      30.03S
FORT PICKETT*  FAIR      65  53  64 S5        30.03S
CHASE CITY*    FAIR      65  64  96 CALM      30.04S
CLARKSVILLE*   FAIR      64  64 100 CALM      30.04S
SOUTH HILL*    PTCLDY    64  63  94 CALM      30.09S
LAWRENCEVILLE* FAIR      63  58  82 CALM      30.03F
EMPORIA*       PTCLDY    61  59  94 CALM      30.04S
$$

VAZ088>098-270400-
SOUTHEAST VIRGINIA

CITY           SKY/WX    TMP DP  RH WIND       PRES   REMARKS
NORFOLK        CLEAR     72  59  63 S6        30.02S
VIRGINIA BEACH PTCLDY    70  59  68 S6        30.02S
NORFOLK NAVAL  PTCLDY    73  55  53 S8        30.03F
WEST POINT*    CLEAR     67  59  76 CALM      30.03S
SALUDA*        FAIR      71  61  71 S3        30.02R
NEWPORT NEWS   CLEAR     73  55  53 S6        30.02S
LANGLEY AFB    MOCLDY    73  58  60 S3        30.02S
FORT EUSTIS    PTCLDY    74  58  57 SE8       30.00S
WILLIAMSBURG*  CLEAR     70  63  78 CALM      30.03S
HR EXEC AP*    FAIR      66  57  72 S6        30.01S
FRANKLIN*      PTCLDY    66  63  88 CALM      30.03S
US460-WAKEFLD  PTCLDY    65  62  90 CALM      30.02S
$$

VAZ020-022-025-037-045-270400-
WEST CENTRAL AND SOUTHWEST VIRGINIA

CITY           SKY/WX    TMP DP  RH WIND       PRES   REMARKS
STAUNTON*      CLEAR     60  49  65 SE3       30.08R
WAYNESBORO*    CLEAR     60  51  73 SW3       30.07R
HOT SPRINGS VA CLEAR     55  37  50 NW3       30.16R
LYNCHBURG      CLEAR     63  56  78 CALM      30.05R
DANVILLE       MOCLDY    64  61  90 CALM      30.04S
SOUTH BOSTON*  FAIR      66  61  86 CALM      30.04S
MARTINSVILLE   PTCLDY    62  60  94 CALM      30.08S
ROANOKE        PTCLDY    68  47  46 NW8       30.09R
BLACKSBURG     MOCLDY    61  51  70 CALM      30.15R
DUBLIN*        CLOUDY    65  47  51 NW3       30.13R
MARION*        MOCLDY    65  48  55 CALM      30.17S
HILLSVILLE*    CLOUDY    64  47  54 CALM      30.12F
RICHLANDS*     FAIR      61  19  19 NW3       30.16S
WISE*          CLEAR     61  48  63 CALM      30.16S
ABINGDON*      CLOUDY    66  56  70 CALM      30.13R
$$

MDZ021>025-VAZ099-100-270400-
SOUTHERN MARYLAND AND THE DELMARVA PENINSULA

CITY           SKY/WX    TMP DP  RH WIND       PRES   REMARKS
PATUXENT RIVER PTCLDY    73  59  61 S8        30.00S
BAY BRIDGE APT PTCLDY    75  59  57 S7        29.99S
LEONARDTOWN    CLEAR     68  61  77 CALM      30.02S
DOVER          CLEAR     68  59  74 SE7       29.99S
GEORGETOWN     CLEAR     68  57  68 SW6       30.02S
EASTON         CLEAR     71  57  60 S7        30.04S
CAMBRIDGE      CLEAR     66  61  82 SE6       30.01S
SALISBURY      PTCLDY    67  59  75 CALM      30.02S
OCEAN CITY     PTCLDY    72  62  71 SW8       30.03S
WALLOPS ISLAND PTCLDY    69  64  84 S6        30.03S
ACCOMACK*      MOCLDY    69  61  76 S7        30.02S
$$

NCZ012>017-030>032-270400-
NORTH CENTRAL AND EASTERN NORTH CAROLINA

CITY           SKY/WX    TMP DP  RH WIND       PRES   REMARKS
ROANOKE RAPIDS FAIR      64  63  94 CALM      30.03S
RALEIGH        CLOUDY    72  58  61 CALM      30.05R
ELIZABETH CITY CLEAR     73  60  63 S6        30.03F
AHOSKIE*         N/A     65  64  95 CALM      30.04S
EDENTON*       CLEAR     75  63  65 CALM      30.04S
CURRITUCK*     CLEAR     70  62  77 CALM      30.05R
KILL DEVIL HLS CLEAR     71  64  78 CALM      30.03R
MANTEO         CLEAR     69  61  76 CALM      30.04S
CAPE HATTERAS  CLEAR     69  64  84 CALM      30.04R
TARBORO*       NOT AVBL
GOLDSBORO      PTCLDY    70  64  79 CALM      30.03R
WASHINGTON     PTCLDY   N/A N/A N/A CALM      30.04S
GREENVILLE     PTCLDY    70  63  78 CALM      30.06R
NEW BERN       CLEAR     69  67  93 CALM      30.05S
WILMINGTON     CLEAR     70  67  90 CALM      30.04S
$$

VAZ048-270400-
ELSEWHERE

CITY           SKY/WX    TMP DP  RH WIND       PRES   REMARKS
HARRISBURG PA  CLOUDY    63  61  93 N3        30.00S
BALTIMORE      PTCLDY    71  57  61 S3        29.98S
ANNAPOLIS      MOCLDY    73  61  65 CALM      30.00R
ANDREWS AFB    MOCLDY    69  57  65 S9        29.99S
PHILADELPHIA   CLEAR     71  51  49 S6        29.99F
HENDERSON NC   CLOUDY    67  58  73 CALM      30.05S
GREENSBORO     MOCLDY    70  59  68 SW5       30.06R
ROCKY MOUNT    MOCLDY    69  66  90 CALM      30.04R
$$

VAZ100-270400-
MARINE

STATION/POSITION TIME  TEMP    WIND        PRES    WAVE   SWELL
                       AIR SEA DIR/SP/G            HT/PER HT/PER
                 (UTC) (F)     (DEG/KT/KT) (MB)    (FT/S) (FT/S)
BRANDYWINE LGT   0248          200/ 12/ 13   N/A
CAPE MAY NJ      0248   69 69  180/  5/  8 1016.1S
LEWES DE         0248   72 71  210/  3/  6 1016.3S
15NM E FENWICK I 0250   71 69  190/  8/ 10 1017.0R   1/ 8   2/ 8
OCEAN-CITY-INLET 0248   71 70  230/  7/  9 1017.0R
WACHAPREAGUE VA  0248   74 79  160/ 10/ 12 1016.4R
THOMAS POINT MD  0300   77 77  180/ 15/ 17   N/A
GOOSES REEF MD   0250   78     220/ 14/ 16 1016.3F
COVE POINT MD    0248   76     200/ 14/ 16 1016.5S
SOLOMONS ISLAND  0248   75 79  180/  9/ 11   N/A
BISHOPS HEAD MD  0248   77 82  170/ 15/ 17 1016.2R
PINEY POINT MD   0242          200/ 13/ 15   N/A
POTOMAC MD       0250   76     210/ 12/ 16 1015.4R
CAMBRIDGE MD     0248   72 82              1016.7S
LEWISETTA VA     0248   73 80  210/  8/  9 1016.0S
RAPPAHANNOCK LGT 0242          160/ 13/ 16 1017.1R
STINGRAY PT      0250   77     210/ 16/ 17 1016.2R
YORK RVR RNG VA  0248   76     190/ 13/ 15 1016.7R
YORKTOWN VA      0248   75 79  180/  8/ 10 1016.1R
JAMESTOWN VA     0250   75     160/  6/  8   N/A
DOMINION TERM VA 0248   75     170/ 12/ 14 1016.4S
KIPTOPEKE VA     0242      77  170/ 10/ 12   N/A
CHES BAY BRIDGE  0248   74 76  190/  9/ 12 1016.5S
CAPE HENRY VA    0248   72     160/  6/  8   N/A
WILLOUBY STN VA  0248   74     170/ 12/ 13 1016.3R
S CRANEY ISL VA  0248   76     180/ 11/ 12 1016.5R
CAPE HENRY BUOY  0230      73                N/A     1/ 8
1ST LANDING BUOY 0250   75                 1016.7R
CAPE CHARLES BUO 0251      72                N/A     1/10
64NM E OF VA BCH 0250   74 75  100/  4/  4 1017.3F   2/ 8   2/ 8
DUCK PIER NC     0248   73 70  140/  6/  7 1016.6R
44100 DUCK FRF   0235      72                N/A     1/ 8
OREGON INLET NC  0248           90/  2/  3   N/A
HATTERAS NC      0248   75 79   90/  2/  2 1017.0R
DIAMOND SHLS NC  0250   77 81   10/  4/  6 1016.8R   2/ 9   2/ 9
CAPE LOOKOUT NC  0200   76      CALM  /  1 1016.8R
$$



USA.gov is the U.S. government's official web portal to all federal, state and local government web resources and services.